DW4707 Campi Bisenzio - Firenze IT current weather conditions

sailwx.info

Wind from 090

Air temperature 34.4° C
Dewpoint 16.3° C

Last reported at 2015-Aug-31 12:52 UTC.
Time now 2015-Aug-31 13:23 UTC

Location: N 43°50' E 011°08'.
View on Google Maps.

See reports from other nearby stations

  
Tides and Currents Weather Stations Pressure Air Temp Water Temp Dewpoint Dewpoint Depression Visibility Wind Speed Wind Dir Waves Ship Positions
date/time (UTC)wind fromknots sea level pressurealtimeterstation pressurevisibilityair tempwater tempwave heightnotes
2015-Aug-31 12:52 090 34.4
2015-Aug-31 12:47 079 34.4
2015-Aug-31 12:42 182 34.4
2015-Aug-31 12:37 022 34.4
2015-Aug-31 12:32 016 33.9
2015-Aug-31 12:27 045 34.4
2015-Aug-31 12:22 045 34.4
2015-Aug-31 12:17 033 34.4
2015-Aug-31 12:12 112 34.4
2015-Aug-31 12:07 045 33.9
2015-Aug-31 12:02 045 33.9
2015-Aug-31 11:57 112 33.3
2015-Aug-31 11:52 022 33.9
2015-Aug-31 11:47 107 33.9
2015-Aug-31 11:42 33.9
2015-Aug-31 11:37 022 33.3
2015-Aug-31 11:32 127 33.3
2015-Aug-31 11:27 33.3
2015-Aug-31 11:22 202 0 gusting 0 33.3
2015-Aug-31 11:17 045 33.3
2015-Aug-31 11:12 158 33.3
2015-Aug-31 11:07 068 0 gusting 0 32.8
2015-Aug-31 11:02 068 32.8
2015-Aug-31 10:57 045 32.8
2015-Aug-31 10:52 202 0 gusting 0 32.8
2015-Aug-31 10:47 166 32.2
2015-Aug-31 10:42 090 32.2
2015-Aug-31 10:37 112 31.7
2015-Aug-31 10:32 168 31.7
2015-Aug-31 10:27 022 31.7
2015-Aug-31 10:22 112 0 gusting 0 31.7
2015-Aug-31 10:17 083 31.1
2015-Aug-31 10:12 090 31.1
2015-Aug-31 10:07 045 30.6
2015-Aug-31 10:02 009 31.1
2015-Aug-31 09:57 045 30.6
2015-Aug-31 09:52 045 30.6
2015-Aug-31 09:47 050 30.6
2015-Aug-31 09:42 180 30.6
2015-Aug-31 09:37 022 30.0
2015-Aug-31 09:32 211 30.6
2015-Aug-31 09:27 158 30.0
2015-Aug-31 09:22 068 0 gusting 0 29.4
2015-Aug-31 09:17 031 28.9
2015-Aug-31 09:12 068 0 gusting 0 29.4
2015-Aug-31 09:07 158 29.4
2015-Aug-31 09:02 090 28.9
2015-Aug-31 08:57 068 28.9
2015-Aug-31 08:52 022 28.9
2015-Aug-31 08:47 038 28.9
2015-Aug-31 08:42 180 28.9
2015-Aug-31 08:37 202 28.3
2015-Aug-31 08:32 130 28.3
2015-Aug-31 08:27 022 27.8
2015-Aug-31 08:22 048 27.8
2015-Aug-31 08:17 150 27.8
2015-Aug-31 08:12 068 27.8
2015-Aug-31 08:07 068 27.2
2015-Aug-31 08:02 125 27.2
2015-Aug-31 07:57 068 26.7
2015-Aug-31 07:52 067 26.7
2015-Aug-31 07:47 084 26.7
2015-Aug-31 07:42 068 26.7
2015-Aug-31 07:37 089 26.1
2015-Aug-31 07:32 045 25.6
2015-Aug-31 07:27 022 25.6
2015-Aug-31 07:22 057 25.6
2015-Aug-31 07:17 175 25.6
2015-Aug-31 07:12 158 25.6
2015-Aug-31 07:07 115 25.6
2015-Aug-31 07:02 045 25.0
2015-Aug-31 06:57 158 24.4
2015-Aug-31 06:52 024 23.9
2015-Aug-31 06:47 179 23.9
2015-Aug-31 06:42 045 0 gusting 0 23.9
2015-Aug-31 06:37 016 23.9
2015-Aug-31 06:32 235 23.3
2015-Aug-31 06:27 270 23.3
2015-Aug-31 06:22 198 23.3
2015-Aug-31 06:17 187 22.8
2015-Aug-31 06:12 090 22.2
2015-Aug-31 06:07 181 21.7
2015-Aug-31 06:02 205 21.7
2015-Aug-31 05:57 180 21.1
2015-Aug-31 05:52 111 20.6
2015-Aug-31 05:47 189 20.0
2015-Aug-31 05:42 225 20.0
2015-Aug-31 05:37 180 20.0
2015-Aug-31 05:32 215 20.0
2015-Aug-31 05:27 225 19.4
2015-Aug-31 05:22 177 19.4
2015-Aug-31 05:17 178 19.4
2015-Aug-31 05:12 180 19.4
2015-Aug-31 05:07 180 19.4
2015-Aug-31 05:02 180 19.4
2015-Aug-31 04:57 158 19.4
2015-Aug-31 04:52 135 19.4
2015-Aug-31 04:47 202 19.4
2015-Aug-31 04:42 180 19.4
2015-Aug-31 04:37 180 19.4
2015-Aug-31 04:32 214 19.4
2015-Aug-31 04:27 225 19.4
2015-Aug-31 04:22 187 19.4
2015-Aug-31 04:17 202 19.4
2015-Aug-31 04:12 158 19.4
2015-Aug-31 04:07 135 19.4
2015-Aug-31 04:02 135 20.0
2015-Aug-31 03:57 158 20.0
2015-Aug-31 03:52 135 19.4
2015-Aug-31 03:47 119 19.4
2015-Aug-31 03:42 112 20.0
2015-Aug-31 03:37 159 20.0
2015-Aug-31 03:32 180 20.0
2015-Aug-31 03:27 180 20.0
2015-Aug-31 03:22 202 20.0
2015-Aug-31 03:17 202 20.0
2015-Aug-31 03:12 202 20.0
2015-Aug-31 03:07 213 20.0
2015-Aug-31 03:02 248 20.0
2015-Aug-31 02:57 270 20.0
2015-Aug-31 02:52 228 20.0
2015-Aug-31 02:47 213 20.6
2015-Aug-31 02:42 248 20.6
2015-Aug-31 02:37 248 20.0
2015-Aug-31 02:32 248 20.6
2015-Aug-31 02:27 230 20.6
2015-Aug-31 02:22 180 20.6
2015-Aug-31 02:17 180 20.6
2015-Aug-31 02:12 180 20.6
2015-Aug-31 02:07 184 20.6
2015-Aug-31 02:02 202 20.6
2015-Aug-31 01:57 180 20.6
2015-Aug-31 01:52 180 20.6
2015-Aug-31 01:47 180 20.6
2015-Aug-31 01:42 180 20.6
2015-Aug-31 01:37 180 20.6
2015-Aug-31 01:32 180 20.6
2015-Aug-31 01:27 180 20.6
2015-Aug-31 01:22 185 20.6
2015-Aug-31 01:17 202 21.1
2015-Aug-31 01:12 202 21.1
2015-Aug-31 01:07 202 21.1
2015-Aug-31 01:02 135 21.1
2015-Aug-31 00:57 21.1
2015-Aug-31 00:52 127 21.1
2015-Aug-31 00:47 112 21.7
2015-Aug-31 00:42 158 21.7
2015-Aug-31 00:37 110 21.7
2015-Aug-31 00:32 180 21.7
2015-Aug-31 00:27 045 21.7
2015-Aug-31 00:22 022 21.7
2015-Aug-31 00:17 180 21.7
2015-Aug-31 00:12 090 21.7
2015-Aug-31 00:07 180 21.7
2015-Aug-31 00:02 180 22.2
2015-Aug-30 23:57 135 22.2
2015-Aug-30 23:52 112 22.2
2015-Aug-30 23:47 112 22.2
2015-Aug-30 23:42 158 22.2
2015-Aug-30 23:37 242 22.8
2015-Aug-30 23:32 090 22.8
2015-Aug-30 23:27 338 22.8
2015-Aug-30 23:22 014 22.8
2015-Aug-30 23:17 22.8
2015-Aug-30 23:12 22.8
2015-Aug-30 23:07 353 22.8
2015-Aug-30 23:02 338 23.3
2015-Aug-30 22:57 338 23.3
2015-Aug-30 22:52 23.3
2015-Aug-30 22:47 23.3
2015-Aug-30 22:42 23.3
2015-Aug-30 22:37 23.3
2015-Aug-30 22:32 23.9
2015-Aug-30 22:27 23.9
2015-Aug-30 22:22 23.9
2015-Aug-30 22:17 23.9
2015-Aug-30 22:12 24.4
2015-Aug-30 22:07 24.4
2015-Aug-30 22:02 24.4
2015-Aug-30 21:57 25.0
2015-Aug-30 21:52 25.0
2015-Aug-30 21:47 338 25.0
2015-Aug-30 21:42 315 25.0
2015-Aug-30 21:37 225 25.0
2015-Aug-30 21:32 225 25.0
2015-Aug-30 21:27 225 25.6
2015-Aug-30 21:22 225 25.6
2015-Aug-30 21:17 202 25.6
2015-Aug-30 21:12 180 26.1
2015-Aug-30 21:07 188 26.1
2015-Aug-30 21:02 180 26.1
2015-Aug-30 20:57 202 26.1
2015-Aug-30 20:52 182 26.1
2015-Aug-30 20:47 112 26.1
2015-Aug-30 20:42 315 26.1
2015-Aug-30 20:37 338 26.7
2015-Aug-30 20:32 202 26.7
2015-Aug-30 20:27 202 26.7
2015-Aug-30 20:22 193 26.7
2015-Aug-30 20:17 180 26.7
2015-Aug-30 20:12 202 26.7
2015-Aug-30 20:07 26.7
2015-Aug-30 20:02 26.7
2015-Aug-30 19:57 26.7
2015-Aug-30 19:52 038 27.2
2015-Aug-30 19:47 022 27.2
2015-Aug-30 19:42 022 27.2
2015-Aug-30 19:37 022 27.2
2015-Aug-30 19:32 045 27.2
2015-Aug-30 19:27 202 27.2
2015-Aug-30 19:22 052 27.2
2015-Aug-30 19:17 112 27.2
2015-Aug-30 19:12 201 27.8
2015-Aug-30 19:07 162 27.8
2015-Aug-30 19:02 357 27.8
2015-Aug-30 18:57 202 27.8
2015-Aug-30 18:52 180 28.3
2015-Aug-30 18:47 022 28.3
2015-Aug-30 18:42 045 28.3
2015-Aug-30 18:37 045 28.3
2015-Aug-30 18:32 045 28.3
2015-Aug-30 18:27 045 28.9
2015-Aug-30 18:22 045 28.9
2015-Aug-30 18:17 090 29.4
2015-Aug-30 18:12 117 29.4
2015-Aug-30 18:07 158 29.4
2015-Aug-30 18:02 158 29.4
2015-Aug-30 17:57 022 30.0
2015-Aug-30 17:52 022 30.0
2015-Aug-30 17:47 022 30.0
2015-Aug-30 17:42 022 30.6
2015-Aug-30 17:37 022 30.6
2015-Aug-30 17:32 022 31.1
2015-Aug-30 17:27 022 31.1
2015-Aug-30 17:22 005 31.1
2015-Aug-30 17:17 31.1
2015-Aug-30 17:12 003 31.7
2015-Aug-30 17:07 31.7
2015-Aug-30 17:02 31.7
2015-Aug-30 16:57 002 31.7
2015-Aug-30 16:52 022 32.2
2015-Aug-30 16:47 32.2
2015-Aug-30 16:42 022 32.2
2015-Aug-30 16:37 32.2
2015-Aug-30 16:32 338 32.2
2015-Aug-30 16:27 32.8
2015-Aug-30 16:22 32.8
2015-Aug-30 16:17 32.8
2015-Aug-30 16:12 002 32.8
2015-Aug-30 16:07 32.8
2015-Aug-30 16:02 32.8
2015-Aug-30 15:57 316 32.8
2015-Aug-30 15:52 33.3
2015-Aug-30 15:47 022 33.3
2015-Aug-30 15:42 055 33.3
2015-Aug-30 15:37 33.3
2015-Aug-30 15:32 33.3
2015-Aug-30 15:27 33.3
2015-Aug-30 15:22 33.3
2015-Aug-30 15:17 33.3
2015-Aug-30 15:12 33.3
2015-Aug-30 15:07 022 33.3
2015-Aug-30 15:02 022 33.3
2015-Aug-30 14:57 018 33.3
2015-Aug-30 14:52 063 33.3
2015-Aug-30 14:47 135 33.3
2015-Aug-30 14:42 045 33.3
2015-Aug-30 14:37 002 33.3
2015-Aug-30 14:32 045 33.9
2015-Aug-30 14:27 022 33.9
2015-Aug-30 14:22 022 33.9
2015-Aug-30 14:17 022 33.9
2015-Aug-30 14:12 045 1 gusting 1 33.9
2015-Aug-30 14:07 022 33.9
2015-Aug-30 14:02 158 33.9
2015-Aug-30 13:57 022 33.9
2015-Aug-30 13:52 022 33.9
2015-Aug-30 13:47 33.9
2015-Aug-30 13:42 037 33.9
2015-Aug-30 13:37 039 33.9
2015-Aug-30 13:32 180 0 gusting 1 33.9
2015-Aug-30 13:27 213 33.9
2015-Aug-30 13:22 180 33.9
2015-Aug-30 13:17 33.9
2015-Aug-30 13:12 33.9
2015-Aug-30 13:07 33.9
2015-Aug-30 13:02 022 34.4
2015-Aug-30 12:57 34.4
2015-Aug-30 12:52 045 34.4
2015-Aug-30 12:47 185 35.0
2015-Aug-30 12:42 197 34.4
2015-Aug-30 12:37 126 0 gusting 0 34.4
2015-Aug-30 12:32 112 34.4
2015-Aug-30 12:27 040 35.0
2015-Aug-30 12:22 096 35.0
2015-Aug-30 12:17 112 34.4
2015-Aug-30 12:12 096 34.4
2015-Aug-30 12:07 158 33.9
2015-Aug-30 12:02 33.9
2015-Aug-30 11:57 254 0 gusting 0 33.3
2015-Aug-30 11:52 045 0 gusting 0 33.9
2015-Aug-30 11:47 202 33.9
2015-Aug-30 11:42 352 33.9
2015-Aug-30 11:37 33.3
2015-Aug-30 11:32 045 33.3
2015-Aug-30 11:27 165 33.3
2015-Aug-30 11:22 043 33.3
2015-Aug-30 11:17 022 33.3
2015-Aug-30 11:12 244 33.3
2015-Aug-30 11:07 044 33.3
2015-Aug-30 11:02 202 33.3
2015-Aug-30 10:57 180 32.8
2015-Aug-30 10:52 202 0 gusting 0 33.3
2015-Aug-30 10:47 022 33.3
2015-Aug-30 10:42 146 33.3
2015-Aug-30 10:37 338 32.8
2015-Aug-30 10:32 135 32.8
2015-Aug-30 10:27 128 32.2
2015-Aug-30 10:22 068 31.7
2015-Aug-30 10:17 090 31.7
2015-Aug-30 10:12 090 31.7
2015-Aug-30 10:07 090 31.7
2015-Aug-30 10:02 133 31.7
2015-Aug-30 09:57 022 31.7
2015-Aug-30 09:52 068 31.7
2015-Aug-30 09:47 158 31.7
2015-Aug-30 09:42 096 0 gusting 0 31.1
2015-Aug-30 09:37 112 30.6
2015-Aug-30 09:32 045 31.1
2015-Aug-30 09:27 039 30.6
2015-Aug-30 09:22 090 30.6
2015-Aug-30 09:17 180 30.6
2015-Aug-30 09:12 032 30.0
2015-Aug-30 09:07 180 29.4
2015-Aug-30 09:02 068 0 gusting 0 29.4
2015-Aug-30 08:57 345 29.4
2015-Aug-30 08:52 112 0 gusting 0 29.4
2015-Aug-30 08:47 042 29.4
2015-Aug-30 08:42 026 28.9
2015-Aug-30 08:37 338 28.9
2015-Aug-30 08:32 068 28.9
2015-Aug-30 08:27 068 28.3
2015-Aug-30 08:22 135 28.3
2015-Aug-30 08:17 202 28.3
2015-Aug-30 08:12 038 27.8
2015-Aug-30 08:07 045 27.8
2015-Aug-30 08:02 021 27.2
2015-Aug-30 07:57 090 27.2
2015-Aug-30 07:52 022 0 gusting 0 27.2
2015-Aug-30 07:47 27.8
2015-Aug-30 07:42 160 27.2
2015-Aug-30 07:37 248 26.7
2015-Aug-30 07:32 225 26.7
2015-Aug-30 07:27 046 26.7
2015-Aug-30 07:22 068 26.7
2015-Aug-30 07:17 090 26.7
2015-Aug-30 07:12 150 26.1
2015-Aug-30 07:07 202 26.1
2015-Aug-30 07:02 090 26.1
2015-Aug-30 06:57 141 26.1
2015-Aug-30 06:52 180 26.1
2015-Aug-30 06:47 202 25.6
2015-Aug-30 06:42 187 25.6
2015-Aug-30 06:37 022 25.0
2015-Aug-30 06:32 180 25.0
2015-Aug-30 06:27 281 25.0
2015-Aug-30 06:22 112 25.0
2015-Aug-30 06:17 184 25.0
2015-Aug-30 06:12 171 23.9
2015-Aug-30 06:07 068 23.3
2015-Aug-30 06:02 070 22.8
2015-Aug-30 05:57 150 22.2
2015-Aug-30 05:52 068 21.7
2015-Aug-30 05:47 090 21.7
2015-Aug-30 05:42 112 21.1
2015-Aug-30 05:37 112 21.1
2015-Aug-30 05:32 180 21.1
2015-Aug-30 05:27 180 21.1
2015-Aug-30 05:22 180 21.1
2015-Aug-30 05:17 022 21.1
2015-Aug-30 05:12 039 21.1
2015-Aug-30 05:07 135 21.1
2015-Aug-30 05:02 112 21.1
2015-Aug-30 04:57 135 21.1
2015-Aug-30 04:52 135 21.1
2015-Aug-30 04:47 112 21.1
2015-Aug-30 04:42 112 21.1
2015-Aug-30 04:37 068 21.1
2015-Aug-30 04:32 112 21.1
2015-Aug-30 04:27 090 21.1
2015-Aug-30 04:22 090 21.1
2015-Aug-30 04:17 135 21.1
2015-Aug-30 04:12 174 21.1
2015-Aug-30 04:07 068 21.1
2015-Aug-30 04:02 176 21.1
2015-Aug-30 03:57 086 21.1
2015-Aug-30 03:52 225 21.1
2015-Aug-30 03:47 248 21.7
2015-Aug-30 03:42 222 21.7
2015-Aug-30 03:37 158 21.7
2015-Aug-30 03:32 180 21.1
2015-Aug-30 03:27 180 21.1
2015-Aug-30 03:22 180 21.7
2015-Aug-30 03:17 158 21.7
2015-Aug-30 03:12 158 21.7
2015-Aug-30 03:07 045 21.7
2015-Aug-30 03:02 045 21.7
2015-Aug-30 02:57 045 21.7
2015-Aug-30 02:52 045 21.7
2015-Aug-30 02:47 135 21.7
2015-Aug-30 02:42 045 21.7
2015-Aug-30 02:37 112 21.7
2015-Aug-30 02:32 158 21.7
2015-Aug-30 02:27 142 22.2
2015-Aug-30 02:22 22.2
2015-Aug-30 02:17 066 22.2
2015-Aug-30 02:12 032 22.2
2015-Aug-30 02:07 135 22.2
2015-Aug-30 02:02 158 22.2
2015-Aug-30 01:57 135 22.2
2015-Aug-30 01:52 022 22.2
2015-Aug-30 01:47 022 22.2
2015-Aug-30 01:42 210 22.2
2015-Aug-30 01:37 202 22.8
2015-Aug-30 01:32 202 22.8
2015-Aug-30 01:27 292 22.8
2015-Aug-30 01:22 315 22.8
2015-Aug-30 01:17 315 22.8
2015-Aug-30 01:12 202 22.8
2015-Aug-30 01:07 202 22.8
2015-Aug-30 01:02 202 23.3
2015-Aug-30 00:57 220 23.3
2015-Aug-30 00:52 045 23.3
2015-Aug-30 00:47 053 23.3
2015-Aug-30 00:42 180 23.3
2015-Aug-30 00:37 202 23.3
2015-Aug-30 00:32 177 23.3
2015-Aug-30 00:27 23.9
2015-Aug-30 00:22 23.9
2015-Aug-30 00:17 002 24.4
2015-Aug-30 00:12 002 24.4
2015-Aug-30 00:07 24.4
2015-Aug-30 00:02 180 23.9
2015-Aug-29 23:57 195 23.9
2015-Aug-29 23:52 338 23.9
2015-Aug-29 23:47 338 23.9
2015-Aug-29 23:42 338 23.9
2015-Aug-29 23:37 338 24.4
2015-Aug-29 23:32 338 24.4
2015-Aug-29 23:27 338 24.4
2015-Aug-29 23:22 338 24.4
2015-Aug-29 23:17 225 24.4
2015-Aug-29 23:12 225 24.4
2015-Aug-29 23:07 225 24.4
2015-Aug-29 23:02 210 24.4
2015-Aug-29 22:57 225 24.4
2015-Aug-29 22:52 225 24.4
2015-Aug-29 22:47 202 24.4
2015-Aug-29 22:42 202 24.4
2015-Aug-29 22:37 202 25.0
2015-Aug-29 22:32 202 25.0
2015-Aug-29 22:27 202 25.0
2015-Aug-29 22:22 202 25.0
2015-Aug-29 22:17 202 25.0
2015-Aug-29 22:12 202 25.0
2015-Aug-29 22:07 202 25.0
2015-Aug-29 22:02 202 25.0
2015-Aug-29 21:57 202 25.0
2015-Aug-29 21:52 202 25.6
2015-Aug-29 21:47 202 25.6
2015-Aug-29 21:42 202 25.6
2015-Aug-29 21:37 202 25.6
2015-Aug-29 21:32 202 25.6
2015-Aug-29 21:27 202 25.6
2015-Aug-29 21:22 202 25.6
2015-Aug-29 21:17 202 25.6
2015-Aug-29 21:12 225 25.6
2015-Aug-29 21:07 225 25.6
2015-Aug-29 21:02 225 25.6
2015-Aug-29 20:57 225 25.6
2015-Aug-29 20:52 225 26.1
2015-Aug-29 20:47 225 26.1
2015-Aug-29 20:42 225 26.1
2015-Aug-29 20:37 225 26.1
2015-Aug-29 20:32 225 26.1
2015-Aug-29 20:27 225 26.7
2015-Aug-29 20:22 225 26.7
2015-Aug-29 20:17 225 26.7
2015-Aug-29 20:12 225 26.7
2015-Aug-29 20:07 225 26.7
2015-Aug-29 20:02 225 26.7
2015-Aug-29 19:57 225 27.2
2015-Aug-29 19:52 225 27.2
2015-Aug-29 19:47 225 27.2
2015-Aug-29 19:42 225 27.2
2015-Aug-29 19:37 270 27.8
2015-Aug-29 19:32 270 27.8
2015-Aug-29 19:27 225 27.8
2015-Aug-29 19:22 225 27.8
2015-Aug-29 19:17 232 28.3
2015-Aug-29 19:12 292 28.3
2015-Aug-29 19:07 022 28.3
2015-Aug-29 19:02 077 28.3
2015-Aug-29 18:57 045 28.3
2015-Aug-29 18:52 180 28.3
2015-Aug-29 18:47 189 28.3
2015-Aug-29 18:42 022 28.3
2015-Aug-29 18:37 022 28.3
2015-Aug-29 18:32 022 28.3
2015-Aug-29 18:27 022 28.9
2015-Aug-29 18:22 022 28.9
2015-Aug-29 18:17 022 28.9
2015-Aug-29 18:12 29.4
2015-Aug-29 18:07 022 29.4
2015-Aug-29 18:02 342 29.4
2015-Aug-29 17:57 022 30.0
2015-Aug-29 17:52 338 30.0
2015-Aug-29 17:47 015 30.6
2015-Aug-29 17:42 022 30.6
2015-Aug-29 17:37 135 0 gusting 1 31.1
2015-Aug-29 17:32 185 31.1
2015-Aug-29 17:27 31.7
2015-Aug-29 17:22 32.2
2015-Aug-29 17:17 32.2
2015-Aug-29 17:12 32.2
2015-Aug-29 17:07 32.8
2015-Aug-29 17:02 32.8
2015-Aug-29 16:57 32.8
2015-Aug-29 16:52 32.8
2015-Aug-29 16:47 33.3
2015-Aug-29 16:42 33.3
2015-Aug-29 16:37 33.3
2015-Aug-29 16:32 33.3
2015-Aug-29 16:27 33.3
2015-Aug-29 16:22 022 33.3
2015-Aug-29 16:17 022 33.3
2015-Aug-29 16:12 022 33.3
2015-Aug-29 16:07 33.3
2015-Aug-29 16:02 022 33.3
2015-Aug-29 15:57 33.3
2015-Aug-29 15:52 33.9
2015-Aug-29 15:47 33.9
2015-Aug-29 15:42 33.9
2015-Aug-29 15:37 33.9
2015-Aug-29 15:32 180 0 gusting 1 33.9
2015-Aug-29 15:27 068 33.9
2015-Aug-29 15:22 225 33.9
2015-Aug-29 15:17 081 33.9
2015-Aug-29 15:12 022 33.9
2015-Aug-29 15:07 331 33.9
2015-Aug-29 15:02 338 34.4
2015-Aug-29 14:57 34.4
2015-Aug-29 14:52 347 34.4
2015-Aug-29 14:47 158 34.4
2015-Aug-29 14:42 022 34.4
2015-Aug-29 14:37 33.9
2015-Aug-29 14:32 34.4
2015-Aug-29 14:27 022 34.4
2015-Aug-29 14:22 041 34.4
2015-Aug-29 14:17 34.4
2015-Aug-29 14:12 022 34.4
2015-Aug-29 14:07 34.4
2015-Aug-29 14:02 34.4
2015-Aug-29 13:57 045 34.4
2015-Aug-29 13:52 060 34.4
2015-Aug-29 13:47 34.4
2015-Aug-29 13:42 022 34.4
2015-Aug-29 13:37 077 34.4
2015-Aug-29 13:32 112 34.4
2015-Aug-29 13:27 045 34.4
2015-Aug-29 13:22 099 34.4
2015-Aug-29 13:17 068 34.4
2015-Aug-29 13:12 158 34.4
2015-Aug-29 13:07 082 34.4
2015-Aug-29 13:02 015 34.4